Theta_e
312 314 313 314 314 314 313 313 313 313 315 314 315 313 314 314 314 313 312 312 312 312 315 311 311 311 310 311 311 311 311 311 311 311 312 313 313 319 327 325 324 324 325 325 326 326 326 326 326 326 326 326 326 326 326 326 326 326 326 326 326 326 326 326 326 326 326 326 327 327 327 326 326 326 326 326 326 326 327 327 327 328 328 328 328
314 313 313 314 314 314 315 313 313 314 315 314 315 314 314 314 314 314 313 312 312 312 314 311 310 310 311 311 311 311 311 310 310 311 312 312 312 315 322 324 325 325 324 324 325 325 325 325 325 325 325 326 326 326 326 326 326 326 326 325 325 325 326 326 326 325 325 325 326 326 326 326 326 326 326 326 326 326 327 327 327 328 328 328 328
312 312 314 313 313 313 314 313 314 314 314 315 315 316 314 314 314 314 313 313 312 312 313 310 309 309 310 310 310 311 311 311 311 311 311 312 312 313 314 321 323 323 323 323 324 325 325 325 325 325 325 325 325 326 326 326 326 326 325 325 325 325 325 325 326 325 325 325 325 326 326 326 326 326 326 326 327 327 327 327 327 327 328 328 328
313 313 313 313 313 314 313 313 314 314 315 315 315 315 315 315 315 315 313 313 312 311 313 309 309 308 308 310 310 311 311 311 310 310 311 311 312 312 313 315 318 321 322 322 323 324 325 325 324 324 325 325 325 326 326 326 326 326 325 324 324 325 325 325 325 325 325 325 325 325 325 325 325 325 325 325 326 325 326 326 326 327 327 328 328
314 316 322 312 313 313 313 318 314 314 314 316 316 315 315 314 315 315 315 312 312 311 312 310 309 309 308 310 310 310 310 310 310 310 311 310 311 311 312 314 314 316 320 321 321 323 325 326 324 324 324 325 325 326 326 326 326 325 324 324 324 324 324 324 324 324 324 324 325 324 324 324 324 325 325 325 325 325 326 326 326 326 327 327 327
314 315 313 311 312 312 313 313 313 314 315 315 314 314 314 314 315 312 316 312 310 310 311 309 309 309 309 309 309 310 311 309 310 310 310 310 311 311 311 312 312 314 316 318 319 321 324 325 323 323 324 324 325 325 325 325 324 324 324 324 324 324 324 324 324 324 324 324 324 324 324 324 324 325 325 325 325 326 325 325 325 325 325 326 327
314 314 313 312 312 312 313 313 313 316 314 314 315 314 313 313 315 312 310 310 310 311 311 309 308 309 309 311 308 310 310 309 309 310 310 310 311 311 312 312 312 314 316 314 315 317 322 324 323 323 323 323 324 324 324 323 324 324 324 324 324 324 324 324 324 324 324 324 325 325 325 325 325 325 326 326 326 326 326 327 324 326 327 326 326
315 314 313 312 312 313 313 313 314 315 314 314 316 314 313 314 314 312 309 309 311 309 310 308 309 309 309 309 308 313 309 309 309 310 310 310 311 312 312 312 312 314 315 312 313 314 320 323 322 322 322 322 322 322 322 323 324 324 324 323 324 325 324 324 323 324 324 324 324 325 325 325 326 326 326 326 328 327 327 327 327 326 327 326 327
316 315 312 313 312 312 313 313 315 314 313 313 313 316 313 313 313 315 310 309 308 308 309 309 309 309 308 308 308 311 308 309 310 312 310 309 310 311 311 311 313 313 312 312 312 313 316 321 321 321 320 321 320 320 321 322 323 324 324 323 323 324 324 323 323 323 324 324 324 325 325 324 326 327 326 326 327 328 327 327 326 328 327 327 326
315 315 313 313 313 313 313 313 314 313 313 313 313 313 313 312 313 310 310 309 309 309 308 309 308 308 309 308 309 308 308 309 312 313 308 309 309 311 311 311 311 311 311 312 312 312 313 316 319 319 319 320 320 319 320 321 322 323 324 323 323 323 323 324 323 323 324 324 324 325 326 327 326 327 328 328 327 329 330 329 328 326 327 327 327
316 315 313 313 315 314 313 313 314 313 313 312 313 314 315 312 311 311 311 309 309 309 309 308 309 308 307 309 308 307 307 310 311 307 309 309 309 312 310 311 311 311 311 311 312 311 312 315 315 315 315 318 319 319 319 320 320 321 322 323 323 323 324 324 323 323 323 323 324 326 327 328 328 326 328 329 326 328 330 330 329 328 327 328 328
316 315 313 315 314 314 313 313 313 314 313 313 313 312 312 313 311 311 311 311 313 311 309 309 307 307 309 309 307 306 306 314 308 307 310 308 309 311 310 312 311 311 311 311 311 311 312 314 316 314 314 315 318 318 318 318 319 319 320 323 322 322 324 324 323 323 324 324 325 326 327 327 327 328 328 327 327 328 328 330 329 328 327 327 327
318 315 314 316 317 314 312 312 312 314 314 314 312 312 312 313 313 311 314 309 308 309 309 307 305 306 304 304 305 306 309 313 307 307 308 308 309 309 310 311 310 310 310 311 310 310 311 313 314 314 314 313 313 316 317 317 316 317 320 321 321 322 323 324 323 323 324 325 325 326 327 330 328 327 327 327 328 328 330 329 329 328 328 327 327
317 316 317 313 313 314 313 313 313 312 314 314 315 317 315 310 310 309 309 311 308 309 310 306 305 304 302 302 305 305 308 309 306 307 307 308 308 309 310 310 310 310 310 310 310 310 311 313 313 313 313 313 313 313 313 312 312 315 319 319 320 322 324 325 324 325 324 325 325 327 329 329 327 327 328 328 328 328 328 328 329 329 328 328 327
314 317 316 314 313 313 313 313 312 314 315 313 311 311 310 311 309 309 309 307 310 310 310 307 306 305 302 303 300 299 305 304 304 306 306 307 308 308 311 310 310 310 310 309 309 309 310 312 313 313 313 313 313 312 312 312 312 317 318 319 319 321 323 325 326 326 324 326 327 329 327 328 327 327 327 328 327 327 328 328 328 327 327 327 327
314 312 316 315 314 313 313 312 313 313 312 312 311 311 311 311 310 310 308 307 305 307 312 307 307 305 302 301 300 298 297 300 300 304 304 306 307 308 309 310 310 310 311 309 308 309 310 311 312 313 313 313 313 312 312 311 313 315 316 317 317 319 321 324 326 327 327 326 326 328 327 329 328 327 327 327 327 328 328 327 326 326 325 326 327
315 314 315 315 314 314 313 313 312 312 312 311 311 312 311 310 309 309 308 308 306 305 308 308 306 308 305 303 300 298 297 300 301 302 304 307 308 308 310 310 309 310 309 309 309 310 310 311 312 312 313 313 313 312 312 311 310 311 311 315 317 318 320 323 326 327 327 326 327 327 328 327 327 327 327 327 327 327 327 327 325 325 325 325 326
314 314 314 317 314 314 313 313 313 313 313 312 312 311 311 311 310 309 309 307 308 307 306 310 312 312 305 306 306 302 301 302 300 298 305 307 306 308 309 309 309 309 309 309 309 309 311 309 311 312 312 313 312 312 311 310 310 310 311 312 316 318 320 323 325 326 325 326 327 327 327 328 328 327 327 327 327 327 327 326 325 325 324 325 325
316 315 315 315 316 314 313 313 313 312 316 313 311 311 311 310 312 310 309 312 307 307 306 306 306 307 308 307 307 308 304 302 299 299 298 303 306 307 308 309 309 309 309 309 309 309 309 310 310 312 312 313 312 312 311 310 310 311 313 315 315 317 319 322 324 326 327 327 328 327 327 327 327 327 326 326 326 326 326 325 325 324 324 325 325
315 314 314 315 317 315 313 313 312 312 316 313 312 311 311 311 314 310 307 311 308 308 307 305 306 306 309 307 307 309 305 303 303 301 299 297 301 306 304 307 308 309 309 309 309 309 309 309 310 312 312 313 312 311 310 309 309 310 312 313 315 317 319 321 324 325 328 329 328 328 328 326 326 326 327 327 327 326 326 325 325 325 324 324 324
314 315 315 315 318 318 314 312 312 312 319 314 311 311 311 310 308 307 307 308 309 309 307 306 304 306 306 305 304 304 303 302 301 302 302 300 300 301 303 306 306 308 309 309 309 310 310 309 311 312 312 312 311 310 309 309 310 311 312 313 314 316 318 320 323 324 326 328 327 328 329 328 327 327 326 326 326 326 326 326 325 325 324 324 325
315 315 315 316 314 317 315 312 313 313 319 314 312 311 310 309 309 308 309 310 309 310 307 306 306 307 306 305 305 303 303 302 301 300 301 301 300 300 302 301 301 305 308 308 309 310 310 309 311 311 311 311 310 309 309 309 310 311 311 312 312 314 317 319 322 325 327 325 326 329 329 328 327 327 326 326 325 326 326 326 326 325 324 324 324
314 316 315 315 314 315 316 313 314 317 318 314 312 312 311 309 308 308 310 310 309 309 312 312 309 308 306 304 305 304 303 301 302 301 302 301 300 301 302 303 303 302 307 309 309 309 309 309 311 311 311 311 310 309 309 309 311 312 312 311 311 313 316 318 321 324 326 325 327 328 329 328 327 327 327 326 326 327 325 325 325 325 324 325 324
314 314 315 315 315 315 316 315 315 314 315 314 313 312 311 309 309 309 310 310 310 312 309 308 308 308 307 305 305 305 303 302 302 303 302 302 301 301 301 303 303 304 306 307 309 308 309 309 311 311 311 310 309 309 309 309 309 312 310 309 310 312 314 317 320 322 324 325 325 327 327 327 328 327 327 327 326 325 326 325 326 325 325 325 325
314 314 315 315 315 315 314 314 314 315 315 313 313 312 311 310 309 309 310 310 311 310 309 309 309 308 308 308 306 304 304 304 303 303 302 303 303 301 303 303 301 302 304 302 306 307 307 309 311 311 310 310 309 308 309 309 309 311 311 308 309 310 311 314 318 321 323 325 326 325 326 328 327 327 328 327 327 325 326 326 326 325 324 324 325
314 314 316 316 316 316 316 316 315 315 315 313 313 312 311 310 310 310 310 311 310 310 310 310 309 309 308 307 306 306 305 304 303 302 302 303 303 303 302 301 301 302 302 303 304 304 308 310 311 311 310 310 308 308 308 309 308 310 310 308 307 308 309 311 314 318 322 324 325 326 325 325 328 327 327 327 327 326 326 326 325 325 325 325 325
314 315 317 316 316 315 315 315 315 314 314 314 314 313 312 311 311 311 312 312 311 312 311 310 310 310 308 307 307 306 306 304 302 303 304 304 304 305 303 300 300 299 301 302 302 304 305 308 310 309 309 309 308 307 308 309 309 310 309 306 306 307 308 308 310 315 319 321 324 325 325 326 326 327 326 327 327 325 326 325 326 326 325 325 325
314 315 315 316 316 315 316 316 316 314 314 314 313 313 312 311 310 311 311 313 312 311 311 310 311 311 309 308 306 307 306 305 304 305 305 305 305 305 304 302 299 297 301 300 302 304 306 307 309 311 310 308 307 307 308 308 308 309 308 306 306 306 307 307 308 311 315 318 321 323 324 325 325 325 326 327 327 326 325 325 325 326 326 326 324
314 315 315 315 315 315 315 315 315 314 313 313 313 313 312 311 311 311 310 310 312 311 311 311 311 311 309 307 307 307 307 307 308 308 308 307 306 305 304 302 302 300 299 299 300 302 306 307 305 308 310 307 307 307 307 307 308 307 306 305 305 306 307 307 307 307 310 314 316 321 323 323 323 324 324 324 325 325 326 326 325 326 326 326 327
316 316 316 315 315 318 316 314 314 314 313 313 314 314 313 312 312 311 311 310 310 311 312 311 310 310 310 308 308 309 307 307 306 307 308 309 306 305 304 303 303 303 301 299 300 302 304 308 307 306 308 307 307 306 307 306 309 306 305 305 305 306 307 306 306 305 305 306 308 312 319 321 321 321 321 322 323 325 326 326 325 326 326 326 324
316 316 315 315 316 315 315 315 315 314 314 314 314 314 313 312 313 312 311 310 310 310 310 310 310 309 308 308 307 306 306 307 307 308 309 308 306 305 304 303 303 304 301 300 299 304 307 305 307 309 307 307 306 306 306 306 307 306 305 305 305 307 307 306 306 305 304 304 304 305 310 317 319 319 319 320 321 322 323 324 325 325 326 323 320
316 316 315 315 315 315 316 316 316 315 314 314 313 313 313 312 312 312 312 311 310 310 309 309 309 308 307 306 306 306 308 307 307 307 307 307 306 305 303 303 302 302 302 301 301 302 306 306 307 308 307 306 306 305 304 305 306 307 305 305 306 307 306 305 305 305 304 304 303 303 305 310 314 316 317 316 317 318 318 318 319 321 320 319 319
316 316 316 316 316 316 316 316 316 315 315 315 314 313 312 312 312 312 312 310 309 308 308 308 307 307 306 305 304 306 307 307 308 307 306 305 305 305 304 303 302 302 302 302 302 303 305 307 307 306 307 306 305 305 304 304 304 304 305 305 305 305 305 305 305 305 305 304 304 303 303 303 306 309 311 310 310 310 312 312 313 315 316 318 318
317 317 317 317 316 317 316 315 315 315 315 315 314 313 312 312 312 312 311 310 308 307 307 307 308 307 306 304 305 307 307 307 307 306 305 305 306 305 304 302 302 302 302 302 302 302 302 306 306 307 306 306 304 306 304 303 303 304 303 304 305 305 305 305 305 305 305 304 304 304 303 303 303 305 307 305 303 303 304 306 308 310 312 313 314
318 317 317 317 317 316 315 315 315 315 315 315 315 314 313 313 312 312 312 311 309 307 307 307 308 307 304 305 304 306 307 307 306 306 305 305 305 305 304 303 302 303 303 303 303 303 302 303 305 304 305 305 304 304 305 304 304 304 303 303 304 304 305 305 304 304 305 304 304 303 303 303 302 302 303 302 302 302 302 302 303 305 306 306 308
317 317 317 317 316 316 315 315 315 316 316 315 314 314 313 313 313 313 312 310 308 308 307 308 307 306 304 303 303 305 307 306 305 305 305 305 305 305 303 303 304 304 305 304 304 304 303 302 303 303 304 304 304 305 305 305 303 303 303 303 304 304 304 304 304 304 304 304 304 303 303 303 302 302 302 302 302 302 301 302 302 302 303 303 304
317 317 317 317 316 316 315 315 315 315 315 315 315 314 314 313 313 313 312 310 308 307 308 307 309 306 304 302 302 305 306 305 305 304 305 305 304 303 303 304 305 305 306 305 304 304 304 302 303 304 305 304 304 304 304 303 303 304 303 302 303 303 304 304 304 304 304 304 304 303 303 303 302 302 302 302 301 301 301 301 301 301 301 301 302
317 317 317 317 317 316 316 316 316 316 316 315 314 314 314 313 312 311 310 309 308 307 308 308 310 305 304 304 304 306 305 305 304 304 304 305 304 303 303 304 304 305 305 305 305 304 304 302 303 303 304 303 303 303 304 303 302 301 302 302 302 303 303 302 303 304 304 303 303 303 303 303 303 303 303 302 302 301 301 301 301 301 300 300 300
317 317 318 317 318 317 317 317 316 317 316 316 315 314 314 313 311 310 309 309 308 308 309 309 310 307 306 307 305 306 306 305 305 305 304 305 305 303 304 304 304 305 305 305 304 304 304 303 303 302 302 303 303 301 303 304 303 302 300 299 300 302 302 302 301 303 303 303 304 305 304 304 304 303 303 302 302 302 301 301 301 301 300 300 300
317 317 317 317 317 317 317 317 317 316 315 314 314 313 313 312 310 309 309 309 308 308 308 309 309 308 308 308 307 306 307 306 306 305 305 306 305 305 304 305 305 305 304 304 304 303 302 302 301 301 301 301 302 303 304 303 301 301 302 300 298 299 300 302 302 301 302 302 301 301 303 303 302 303 303 303 303 303 303 302 301 301 300 299 299
317 316 316 316 316 316 316 316 315 315 314 314 314 313 312 311 309 308 308 308 309 307 307 308 309 309 309 308 307 307 308 310 310 309 308 309 306 305 305 306 306 306 305 305 304 304 303 303 302 304 303 301 301 300 300 300 299 299 301 302 299 301 301 300 301 303 303 301 300 300 300 300 300 300 300 300 301 301 301 302 301 301 300 299 299
312 313 313 313 312 313 313 314 314 314 314 314 315 316 316 313 309 308 308 308 308 307 307 306 307 309 308 306 307 311 312 311 310 310 310 311 310 308 306 306 306 305 304 304 303 304 304 303 303 303 301 300 300 300 300 301 302 302 301 300 298 300 301 300 300 301 303 301 299 298 299 300 299 298 299 298 300 300 300 300 300 300 300 299 299
309 310 309 309 310 310 311 311 312 312 313 314 312 302 302 306 312 307 307 307 308 308 308 307 307 307 306 305 305 310 312 310 311 311 310 310 310 311 310 311 310 307 304 304 304 305 304 304 304 303 301 300 300 301 301 302 301 301 300 300 300 299 298 297 295 299 303 301 299 297 297 300 299 297 297 298 299 299 299 299 300 300 299 299 299
307 307 307 307 308 309 309 309 309 310 311 310 299 301 301 300 307 308 307 307 307 307 307 307 307 306 306 306 305 306 309 310 311 311 310 309 305 305 306 305 305 302 302 306 306 304 304 303 303 303 302 300 300 301 301 302 301 301 301 301 300 299 298 297 297 295 301 303 299 297 296 299 299 297 296 297 298 299 299 299 299 299 299 299 299
305 305 305 306 306 306 306 306 307 308 308 303 297 299 300 299 298 309 306 307 306 306 306 306 306 306 306 306 305 306 306 313 312 308 308 308 308 307 308 308 306 300 294 294 299 306 306 305 304 303 302 302 301 302 302 302 302 301 301 300 300 299 299 298 298 299 301 303 300 297 295 298 299 297 296 297 298 298 298 299 299 298 298 298 298
303 303 304 304 304 303 304 304 305 305 305 303 297 297 298 298 296 301 306 305 305 305 305 305 306 306 306 306 305 306 306 311 309 308 308 306 306 306 305 305 307 308 304 300 301 304 307 306 305 303 304 305 303 304 305 304 302 301 300 299 301 300 299 299 301 302 303 305 300 298 295 297 298 297 295 297 298 298 298 298 298 298 298 298 297
301 301 302 302 302 302 302 302 303 302 303 299 296 296 296 296 295 299 305 304 304 304 304 305 305 306 305 304 305 305 305 306 307 308 307 306 305 305 305 305 305 304 304 304 305 306 305 304 306 306 304 306 305 305 306 306 304 304 303 302 302 302 302 303 303 303 302 304 302 299 293 296 298 296 295 296 297 297 298 298 298 297 297 297 297
300 301 301 301 300 300 301 301 302 300 302 297 296 296 296 296 295 304 304 304 303 302 303 303 303 305 305 303 304 303 304 305 308 303 306 307 306 305 305 305 304 304 303 302 296 298 304 305 306 306 305 306 303 306 306 305 306 306 306 305 304 303 301 299 298 300 300 303 302 299 295 295 298 295 294 297 297 296 297 297 297 297 297 297 297
298 299 299 299 300 299 300 300 301 300 300 299 295 295 295 295 298 304 304 304 303 302 301 301 303 304 304 303 303 303 303 305 302 297 299 308 306 305 305 304 304 304 304 303 297 295 295 294 294 294 294 295 297 297 298 298 304 305 305 302 300 302 300 297 298 298 299 302 303 301 297 295 297 296 294 295 295 295 295 296 297 297 297 296 296
297 298 300 298 298 299 298 298 301 299 299 301 296 295 294 294 299 302 303 302 302 300 300 302 302 303 304 306 304 302 302 303 296 296 299 306 306 304 304 304 304 304 304 306 306 302 296 295 294 295 295 296 297 297 297 298 300 305 305 300 301 302 300 299 297 299 300 302 302 305 298 296 298 298 295 295 295 294 295 295 296 296 296 296 296
298 298 300 297 297 298 298 299 302 299 299 300 297 294 294 294 297 301 302 301 300 300 300 301 302 303 304 308 305 303 302 302 293 295 298 307 306 305 304 304 303 303 304 305 306 306 306 305 305 305 303 306 307 307 306 302 303 307 306 304 304 302 300 300 300 300 298 299 302 305 298 297 298 298 298 295 291 293 295 294 295 295 295 296 296
Wind_Speed
3 1 0 3 2 2 2 2 3 3 4 4 3 5 5 5 5 4 4 4 4 5 5 5 4 4 4 5 5 5 5 5 5 5 5 4 4 6 10 8 9 9 8 8 9 9 9 10 11 12 13 13 14 15 16 16 17 17 17 18 18 19 19 20 20 21 21 21 22 22 24 25 26 26 26 25 25 26 26 25 25 25 25 24 24
2 1 2 2 2 1 1 3 4 3 4 4 4 4 4 5 5 5 5 5 4 4 4 5 5 4 4 4 4 4 4 4 5 5 5 5 5 5 11 12 11 10 10 9 10 10 10 10 11 12 13 14 15 16 17 17 17 18 18 18 19 20 21 21 21 22 22 22 23 23 24 25 26 26 26 27 27 27 27 27 27 26 25 25 25
3 2 1 2 1 1 1 3 3 3 3 4 3 3 4 3 3 3 4 4 4 3 3 4 4 4 5 4 4 4 4 4 4 4 5 5 5 5 6 11 11 11 11 10 10 10 10 11 12 13 14 15 16 17 17 17 17 18 18 20 21 22 22 23 23 23 23 23 23 24 24 24 25 26 27 27 27 27 28 28 27 27 26 26 26
3 2 2 2 1 0 2 3 3 4 3 3 4 4 3 4 3 2 2 2 4 4 3 3 5 4 4 5 4 4 4 4 4 4 4 4 5 5 4 5 9 10 10 11 11 10 10 11 12 14 15 16 17 18 17 17 18 20 21 22 23 23 24 24 24 24 24 24 24 25 26 26 26 27 28 29 28 28 29 29 28 28 28 27 27
3 3 2 3 2 1 2 3 3 4 4 3 4 3 4 5 5 4 4 4 4 5 4 4 4 5 4 4 4 4 3 3 4 4 4 4 4 4 4 4 4 8 11 12 12 12 10 10 13 14 16 17 18 18 17 17 19 20 21 22 23 24 24 24 24 24 24 25 25 26 26 26 27 28 28 29 29 28 29 29 29 29 29 29 28
4 3 3 3 3 2 3 4 4 4 4 3 3 3 4 4 5 4 3 3 4 4 4 5 5 4 4 4 4 3 3 3 3 3 3 4 4 4 4 4 5 5 5 10 11 11 11 11 12 14 15 16 16 16 16 17 19 20 21 22 23 25 25 25 24 25 26 26 27 27 28 28 28 29 30 29 29 30 31 31 30 29 31 31 29
3 3 4 4 3 3 3 4 4 3 4 3 3 3 3 3 3 4 4 3 3 4 3 4 4 5 4 4 4 4 3 3 3 4 4 4 4 4 4 4 4 5 4 4 7 10 11 10 11 13 15 15 15 15 16 17 19 21 22 23 24 25 25 25 25 26 26 27 27 28 28 29 30 31 31 31 31 30 31 31 30 28 31 32 31
3 4 4 4 4 3 4 4 4 3 4 3 3 5 4 4 1 1 3 3 3 4 3 4 4 5 4 3 3 3 3 4 4 4 4 4 4 5 5 4 5 5 6 4 4 6 10 10 11 13 13 14 14 15 17 18 20 22 23 25 26 26 26 27 28 27 28 28 28 29 30 31 31 32 31 31 27 30 29 31 32 31 31 32 29
4 4 4 4 5 4 4 4 3 3 4 4 4 3 4 3 3 1 2 3 3 4 5 4 5 5 4 4 3 3 3 3 4 4 4 4 5 5 5 6 5 6 4 4 4 4 7 11 11 12 13 14 14 16 17 19 21 22 24 25 27 28 28 28 29 28 28 29 31 33 32 31 31 29 28 30 31 28 31 31 31 31 30 32 31
4 4 4 5 4 4 5 5 3 3 4 4 4 3 3 2 3 2 2 2 3 4 5 5 4 5 5 5 4 3 3 3 4 3 3 5 5 5 5 4 4 5 5 4 4 4 4 7 10 10 12 14 15 16 17 19 21 23 24 25 28 29 30 29 28 29 30 30 31 31 31 29 28 29 28 28 31 30 28 27 27 28 29 32 32
4 4 5 5 5 4 5 5 3 3 4 4 5 5 3 1 1 4 2 3 4 4 4 4 5 5 5 5 3 4 3 3 3 3 4 4 4 4 4 4 5 4 4 5 4 4 4 4 4 5 6 13 13 15 17 19 21 22 24 25 27 28 29 29 29 30 31 32 30 30 30 31 27 28 29 28 26 26 25 24 25 26 28 29 28
5 4 4 5 5 5 5 5 4 3 4 5 6 5 6 5 4 2 5 4 3 3 2 4 3 5 6 5 4 3 4 2 3 4 4 4 4 3 4 4 4 6 5 5 4 4 4 5 4 5 5 8 13 14 17 19 20 22 24 26 28 30 29 30 30 30 31 30 30 29 29 28 29 28 25 22 19 21 23 25 26 27 26 28 27
5 4 5 5 5 5 4 6 4 3 4 5 5 6 5 4 3 2 3 3 3 2 1 1 2 5 4 5 5 3 3 3 4 5 5 5 3 4 4 5 5 5 6 5 5 5 4 5 4 4 5 5 7 12 15 18 19 21 24 27 28 29 30 32 32 31 31 31 30 29 31 28 27 24 20 18 18 19 20 22 23 23 21 22 24
5 4 5 5 5 5 4 6 5 5 4 4 4 4 5 2 0 3 1 3 3 3 1 1 2 4 5 5 5 5 4 2 4 5 6 5 4 4 5 6 6 5 5 5 5 5 5 4 4 4 5 5 6 6 7 10 12 20 25 26 27 29 31 32 32 32 31 30 30 29 27 24 21 19 18 17 18 19 19 19 19 16 16 18 20
6 5 4 5 5 4 5 5 5 5 4 5 4 6 5 3 1 2 4 1 3 3 3 1 2 3 1 1 3 3 4 4 2 5 5 4 4 5 5 6 7 6 4 4 4 5 5 4 5 5 6 6 6 6 7 9 13 23 25 25 27 30 32 33 34 32 30 30 29 28 22 20 20 17 17 17 17 18 18 17 15 11 10 12 16
6 5 4 4 5 6 5 4 6 5 5 4 5 6 4 4 3 3 2 4 3 2 0 2 2 2 5 2 2 1 5 2 3 6 2 5 4 5 4 6 6 7 5 6 6 6 6 5 5 5 6 6 6 7 7 8 17 22 24 24 29 31 32 32 33 32 30 29 28 23 20 19 18 17 15 15 15 15 16 13 13 8 7 9 15
7 6 5 5 5 5 5 5 5 5 4 4 5 6 5 4 3 3 4 4 4 2 2 2 4 2 1 3 3 2 2 5 6 4 3 4 4 4 6 6 7 7 6 7 6 6 5 6 5 5 6 7 7 7 7 9 11 11 15 21 30 32 32 32 32 32 31 29 27 22 20 18 17 15 15 14 14 14 13 9 9 8 6 7 10
6 6 6 5 6 6 5 5 5 5 5 6 5 4 5 5 5 5 5 4 4 3 4 2 3 2 3 2 3 2 5 5 3 5 2 4 2 5 6 7 7 7 7 6 7 8 5 6 6 6 6 6 7 7 7 9 11 11 13 17 33 30 32 32 33 32 29 29 26 23 19 17 16 15 14 13 13 12 11 8 6 5 5 6 9
6 5 6 6 5 5 6 6 6 5 5 5 5 6 5 5 3 4 5 3 3 4 5 5 3 1 1 2 2 2 2 2 4 4 9 3 0 5 6 7 7 7 8 7 7 7 6 5 6 6 6 6 7 7 7 9 13 15 19 27 29 31 32 32 32 32 31 30 26 23 21 18 17 15 14 12 11 10 10 6 6 5 2 4 7
5 5 5 5 5 6 6 6 6 6 5 5 6 5 4 3 3 3 3 3 4 5 6 3 2 3 1 3 3 2 1 3 4 3 3 7 8 1 2 7 8 7 7 6 7 7 6 6 5 6 5 6 6 7 9 10 10 11 11 28 28 30 32 32 32 32 31 30 25 21 19 20 19 17 14 12 11 10 8 7 4 4 4 2 3
4 5 5 6 5 6 6 6 6 6 5 5 5 5 5 5 4 3 4 4 4 4 2 4 4 4 2 3 2 3 2 1 2 3 3 4 7 6 8 2 5 7 8 7 7 6 5 5 5 5 6 6 7 7 9 9 9 10 16 26 27 30 31 31 30 31 31 33 25 21 20 19 16 16 17 13 12 10 8 6 6 3 1 3 4
5 5 5 6 6 6 6 7 7 6 5 6 5 5 5 5 5 4 3 5 3 4 5 4 4 4 4 3 3 2 2 1 1 2 3 4 5 7 6 9 11 7 7 7 9 7 6 4 5 6 6 6 7 8 8 9 9 9 17 27 27 30 32 31 30 30 32 31 25 23 20 19 16 14 13 15 15 11 7 7 5 5 3 1 5
5 6 6 6 6 5 6 6 5 5 5 5 6 6 6 6 5 3 3 5 5 4 4 4 3 3 4 5 5 5 4 3 4 3 3 4 3 4 5 3 6 8 7 8 6 6 4 3 4 5 5 6 7 8 8 9 11 17 24 26 27 30 32 31 30 31 30 31 26 25 22 19 18 15 13 12 10 10 8 6 6 6 5 4 5
5 6 6 6 6 6 6 5 5 5 6 6 5 6 6 5 4 4 5 6 4 3 3 4 4 4 4 4 5 4 3 4 4 4 4 4 2 4 5 4 4 4 6 8 6 2 4 4 4 5 6 6 7 8 8 8 11 24 19 25 27 30 32 31 31 30 30 31 29 26 25 22 19 17 15 13 11 10 8 8 6 6 5 5 4
6 5 7 7 5 6 6 6 6 6 6 6 6 6 6 5 5 4 4 5 5 4 4 5 5 5 6 5 4 4 5 4 3 4 3 3 3 3 3 2 5 6 4 2 4 5 2 3 4 5 6 6 7 8 8 8 10 20 23 16 28 28 32 31 32 31 30 30 29 27 25 22 21 21 17 15 13 11 9 8 7 6 4 4 5
7 7 7 6 5 6 6 6 6 6 6 7 7 6 6 5 5 5 6 6 4 4 5 6 5 6 4 4 4 4 5 3 4 4 4 3 3 3 3 2 3 6 3 3 2 3 3 4 4 6 6 7 7 8 8 10 11 21 23 16 18 27 29 31 33 32 31 29 29 28 27 25 25 24 22 18 15 13 10 9 6 6 5 5 6
7 7 6 6 6 5 6 6 6 6 6 6 6 6 5 5 4 5 5 4 4 4 5 5 5 5 5 5 4 3 4 3 3 4 4 4 3 2 1 6 5 3 4 2 3 3 3 3 2 8 6 7 7 8 10 11 14 21 20 13 12 23 29 31 32 33 30 29 30 29 29 28 27 26 24 21 19 14 10 10 8 7 8 6 6
6 6 7 6 6 6 6 6 6 6 6 7 7 5 5 5 5 4 6 3 4 5 5 5 6 6 6 4 3 4 4 3 3 4 5 4 3 2 3 2 3 7 4 5 4 3 2 7 2 5 7 7 7 9 10 12 13 19 18 11 11 12 26 30 31 32 32 30 31 30 29 27 26 27 27 25 21 17 14 11 10 9 9 8 7
7 5 7 6 6 6 6 6 6 6 6 7 6 6 7 6 6 5 6 5 4 6 4 5 5 5 5 5 5 4 5 2 2 3 3 3 3 3 4 4 3 2 3 4 4 3 4 6 6 4 7 7 8 9 10 10 15 16 13 11 11 10 22 28 30 31 32 32 31 32 30 29 29 29 28 26 24 22 18 14 11 10 10 9 9
6 6 6 7 6 5 6 6 6 5 6 6 7 7 6 6 7 6 6 5 5 4 4 4 5 4 5 3 3 4 3 2 2 2 2 2 2 2 3 3 4 2 2 3 5 2 3 3 5 5 5 7 7 10 9 9 18 15 13 10 11 12 23 29 29 28 29 31 31 31 31 31 31 31 30 29 27 26 23 19 15 14 13 13 11
6 6 6 6 6 6 5 6 5 7 6 6 7 6 6 7 6 6 6 5 5 5 5 4 5 4 5 5 3 4 2 3 2 1 0 1 1 2 1 2 3 3 3 2 3 2 1 6 3 3 5 6 8 8 9 9 13 15 11 10 11 20 21 21 30 29 26 27 28 29 31 32 32 32 32 31 30 30 30 29 24 17 16 14 11
6 6 6 6 5 6 6 6 6 7 6 8 6 7 6 7 7 6 6 5 6 7 6 4 4 5 5 5 4 4 3 2 2 0 1 1 1 0 1 1 2 2 3 2 3 4 3 3 3 4 6 5 8 10 10 8 10 16 10 10 13 18 12 11 23 31 27 27 27 27 29 33 33 33 32 32 33 34 34 33 32 26 18 13 13
5 6 5 5 7 7 7 6 6 7 7 7 6 6 7 7 6 7 6 6 7 7 5 5 4 5 5 5 4 4 3 4 1 1 1 1 0 0 1 1 1 1 2 3 3 2 0 2 2 4 5 5 8 10 11 10 10 10 9 10 11 11 12 11 13 25 29 27 27 27 27 29 31 33 33 33 33 32 33 32 33 30 24 20 16
4 7 7 7 6 7 6 7 7 7 7 7 6 6 7 7 7 6 7 7 8 7 5 7 5 4 5 5 4 3 3 2 2 2 2 1 2 2 2 1 1 1 1 2 2 1 2 4 5 4 5 6 8 8 9 12 11 9 10 11 10 11 11 11 12 15 28 24 26 27 27 30 29 30 32 33 32 33 31 33 32 30 27 30 26
6 6 7 6 6 6 6 7 7 7 7 7 6 6 7 6 8 8 7 7 8 8 7 6 5 5 5 5 5 3 3 3 2 2 0 1 1 2 2 1 2 1 1 3 2 0 3 4 4 4 5 5 7 7 7 8 8 8 9 11 10 9 9 11 12 12 24 23 26 26 27 29 29 29 31 32 32 31 31 30 30 32 34 31 28
7 6 5 6 6 6 6 7 7 7 7 7 6 6 7 8 9 9 8 8 9 8 7 4 5 5 6 5 4 4 4 4 3 2 1 0 1 2 1 2 2 2 1 2 2 1 1 4 6 5 3 5 7 6 5 5 7 8 8 8 10 11 11 11 12 12 18 23 22 25 27 28 30 31 32 32 31 30 30 31 31 30 31 30 30
6 6 6 5 6 6 7 8 7 7 7 6 7 8 7 7 9 9 8 8 7 7 4 6 5 5 4 5 4 5 5 4 3 2 1 1 1 1 2 2 1 1 1 2 2 1 3 5 3 3 3 4 4 5 6 5 6 7 9 9 10 10 11 11 10 11 16 21 18 24 25 28 29 30 30 30 30 30 30 31 32 34 30 29 29
6 5 6 6 5 7 7 7 7 7 7 7 7 8 8 7 7 7 7 7 6 6 5 6 4 6 6 6 5 6 6 6 4 3 2 2 1 1 2 2 2 2 3 3 3 3 6 5 2 4 5 4 6 7 6 6 7 7 7 7 10 11 10 11 11 10 9 11 13 13 18 20 25 31 33 29 30 30 31 31 30 28 26 25 31
6 6 6 6 6 6 7 6 7 7 7 7 7 7 8 7 7 6 6 6 6 5 6 5 5 6 5 6 5 6 6 5 5 4 3 2 1 2 2 1 2 2 3 3 3 4 4 4 3 4 5 5 4 6 5 5 9 8 7 7 11 9 10 10 10 10 9 10 15 24 22 21 25 21 31 34 34 33 29 31 30 29 28 28 26
5 5 6 6 6 5 6 6 7 6 7 7 7 7 7 6 6 6 6 6 6 5 5 5 6 5 6 5 5 6 6 6 6 5 5 4 2 2 1 2 2 4 5 4 5 4 5 4 5 4 4 4 4 3 3 3 7 9 7 6 9 9 9 10 11 10 10 11 12 13 12 16 16 22 24 28 32 32 32 26 32 30 30 27 26
5 6 5 6 7 8 8 6 7 6 6 6 6 6 6 6 5 5 6 7 6 6 6 4 3 3 4 4 4 4 5 7 8 7 6 5 4 4 2 2 3 4 5 4 4 5 4 5 5 5 5 5 5 5 7 9 9 7 4 4 7 7 6 10 10 11 10 10 10 13 13 12 15 14 13 15 18 23 25 29 25 30 31 27 27
7 7 8 7 6 7 7 8 7 6 6 5 7 10 8 6 5 5 5 6 5 6 6 5 5 3 5 3 4 6 9 9 11 10 8 6 7 5 3 2 3 4 4 4 3 3 3 3 3 4 5 5 5 6 7 6 5 4 6 6 7 4 5 10 10 10 10 10 10 13 12 13 11 13 14 15 14 17 13 13 18 22 27 28 28
8 8 7 9 9 8 8 7 8 8 7 7 15 14 12 9 6 5 5 5 5 6 6 6 6 5 3 2 4 5 7 8 8 9 7 6 7 6 4 3 3 3 3 3 3 2 2 3 3 4 4 5 4 5 5 3 4 5 5 5 5 6 9 10 9 8 11 10 10 11 12 12 12 13 13 13 14 15 14 16 26 26 28 28 29
9 7 10 9 8 9 8 9 9 8 7 15 19 17 13 9 6 5 4 5 5 5 4 5 5 6 6 5 4 2 3 5 7 6 6 7 7 6 5 2 3 6 5 1 3 3 3 4 4 4 5 5 4 3 4 3 4 6 8 8 6 9 10 11 8 9 7 9 9 10 12 12 11 13 14 12 12 10 17 23 25 26 27 27 27
7 9 8 9 10 9 10 10 10 9 8 18 19 19 15 8 7 6 4 5 5 4 5 6 6 6 6 5 3 2 3 8 7 6 6 5 5 4 4 3 1 4 3 4 4 2 3 4 5 4 4 5 6 4 3 3 3 8 8 10 7 9 9 10 8 7 7 6 7 10 12 10 10 11 12 12 12 12 16 23 25 24 26 26 25
9 9 9 9 9 10 9 9 8 8 8 17 19 19 17 9 6 6 4 4 4 5 5 6 6 6 6 6 5 4 3 5 6 6 5 5 5 4 3 2 3 5 5 4 5 5 3 3 5 5 4 3 4 3 4 2 3 7 9 10 9 10 11 11 9 9 6 5 7 6 11 10 9 9 12 11 9 11 14 22 25 25 24 24 24
7 7 7 8 8 8 9 9 8 8 7 16 19 19 18 13 6 4 3 3 4 4 4 4 5 4 5 5 6 6 5 5 5 7 6 5 5 5 3 4 4 4 4 3 4 3 2 1 2 5 5 4 4 5 4 3 4 5 6 9 9 9 9 8 9 8 8 9 8 5 10 8 7 9 11 9 9 11 10 18 26 25 25 24 25
6 6 7 7 8 8 7 8 8 9 8 15 18 20 19 15 6 2 3 4 4 3 3 3 3 3 2 3 4 4 4 4 5 7 6 6 6 6 4 4 4 4 4 4 5 6 3 2 3 5 5 5 5 6 5 4 5 5 6 6 6 7 9 9 10 8 9 8 9 7 9 8 7 10 10 8 9 11 10 10 19 26 26 25 23
7 7 7 6 5 6 7 7 8 7 8 13 17 19 19 17 6 2 2 4 4 4 3 2 2 2 4 4 3 4 4 4 6 9 10 7 6 6 5 5 4 4 4 3 5 6 6 6 7 7 8 10 11 11 9 5 5 3 6 8 8 7 9 9 9 8 8 5 6 7 7 9 6 7 7 9 9 10 10 10 10 17 21 23 25
7 7 6 6 6 6 7 7 8 8 9 11 15 17 18 18 10 4 1 2 3 4 4 3 2 1 3 4 3 3 4 4 6 9 10 7 7 6 6 6 5 5 3 2 3 4 6 6 7 8 9 12 12 11 8 6 4 3 1 7 4 5 9 8 9 8 6 5 5 3 5 7 5 5 7 5 7 9 9 9 11 12 15 16 23
5 5 5 6 6 6 6 7 12 12 9 11 15 16 18 18 10 4 1 2 3 3 4 4 3 3 2 3 7 5 3 4 7 7 6 5 6 6 6 5 5 5 3 2 5 5 5 6 5 7 7 9 8 6 5 5 7 6 5 4 1 4 9 9 7 6 6 5 6 6 4 5 4 5 2 4 7 7 10 9 11 11 11 10 11
Wind_Direction
80 53 306 92 89 49 21 339 352 350 357 337 338 337 344 1 1 19 347 348 345 342 339 337 349 1 9 351 352 345 341 341 335 334 333 323 333 336 14 29 29 24 17 6 358 353 349 350 348 344 339 335 332 331 330 328 328 327 324 322 319 316 312 308 304 301 298 296 293 289 287 286 285 285 283 281 280 278 276 274 272 270 269 268 265
117 134 161 126 133 217 346 345 345 347 4 338 338 327 329 355 5 5 352 351 351 337 342 333 338 347 359 357 349 338 328 336 337 340 332 335 342 342 352 6 6 5 4 358 353 350 350 352 351 349 344 340 336 334 331 330 329 327 327 327 323 319 314 310 306 302 299 296 293 291 290 288 288 286 284 283 281 278 275 273 270 269 267 264 263
127 154 260 199 221 301 355 329 342 342 337 314 314 317 307 359 16 351 342 343 337 321 334 332 329 341 349 347 343 329 340 344 334 335 344 345 344 348 342 349 354 357 355 351 347 344 345 350 352 350 346 340 336 334 331 329 330 331 332 330 326 321 316 312 308 304 301 297 295 293 290 289 288 287 285 282 280 278 275 272 269 267 266 263 260
147 173 225 244 240 292 322 335 312 300 317 304 314 328 315 340 43 10 323 345 332 341 341 349 331 333 335 341 337 343 347 339 344 340 339 342 342 342 336 338 343 345 350 351 351 349 347 349 350 348 344 341 337 334 333 334 334 333 332 329 325 321 316 312 308 305 302 299 297 294 292 291 289 286 284 281 278 278 275 272 268 264 262 260 259
173 186 231 240 259 293 312 287 273 288 309 321 325 327 0 1 360 354 10 18 359 344 335 335 335 334 336 328 334 340 342 337 334 341 347 337 337 327 331 338 335 342 345 351 350 347 343 347 351 347 344 341 337 335 333 334 333 332 331 329 324 320 315 310 306 304 302 299 296 294 293 292 290 288 285 282 281 277 272 270 268 264 260 258 255
162 212 236 240 257 270 274 301 289 307 311 353 352 354 12 4 343 350 6 14 342 319 335 335 319 314 335 326 327 327 330 334 340 333 327 339 331 331 335 337 338 336 331 341 340 339 341 350 348 345 343 341 336 335 335 333 333 331 329 326 322 317 313 311 309 306 303 301 299 298 296 294 292 288 285 282 279 276 274 270 266 266 264 258 253
182 185 229 222 245 262 288 270 300 322 336 358 313 7 21 6 329 349 332 350 339 308 327 310 311 319 322 329 322 318 338 334 327 340 343 329 331 336 338 338 336 326 331 329 328 331 338 344 345 343 343 341 338 337 336 334 330 329 328 326 321 316 314 313 312 310 308 306 303 299 297 296 293 290 288 285 280 277 275 273 267 259 258 255 251
200 190 226 231 238 250 268 278 295 328 328 355 347 3 336 337 294 188 339 309 330 313 320 322 312 309 318 320 312 319 331 340 342 327 332 321 341 338 338 334 333 334 339 324 317 320 331 338 341 341 341 340 339 336 335 333 330 328 327 325 321 318 317 316 315 312 308 305 304 300 297 293 290 288 287 282 278 277 275 269 267 260 256 253 247
205 197 219 245 249 250 271 271 288 322 332 342 353 315 304 324 303 251 196 253 288 303 318 325 311 307 314 317 315 314 321 340 324 323 323 338 339 335 338 340 335 336 321 320 319 319 326 330 331 335 340 339 338 337 334 332 329 326 325 324 323 321 320 317 314 310 307 305 302 298 296 294 292 290 287 283 279 278 275 270 268 262 259 253 245
227 211 227 248 246 250 276 284 284 330 339 339 315 301 282 205 296 302 210 201 267 299 309 318 306 302 317 311 315 319 284 308 335 334 334 330 331 334 330 310 323 321 323 318 321 319 311 311 321 336 339 335 333 332 331 328 325 324 323 323 323 323 322 319 314 310 307 304 302 300 297 295 292 289 289 286 285 281 277 273 270 265 261 252 244
243 228 230 251 259 263 272 274 297 321 342 330 318 324 281 174 209 288 264 231 242 243 271 298 293 301 294 296 304 296 290 273 326 311 324 309 306 320 314 327 320 321 316 321 317 308 297 306 331 335 326 323 320 324 326 325 323 321 321 322 325 324 322 319 313 311 309 306 305 303 301 296 295 298 293 293 291 280 276 272 269 265 258 253 245
243 233 233 249 249 257 261 276 290 312 317 322 309 309 302 314 295 236 296 316 241 244 267 318 301 302 304 310 292 281 300 285 301 338 309 310 309 312 320 323 331 326 329 328 322 316 314 319 323 322 313 311 310 316 321 322 321 319 319 323 326 325 323 317 315 312 310 310 309 305 302 302 303 299 297 293 283 284 285 283 283 275 257 245 240
250 227 235 245 243 256 268 279 279 277 275 272 269 286 272 235 261 323 274 298 308 226 285 123 6 313 319 311 314 285 264 283 299 333 321 293 295 319 320 333 332 332 329 323 324 316 308 304 309 312 310 302 302 307 314 318 319 317 320 327 328 326 323 318 317 316 314 311 310 310 307 304 305 306 306 301 295 298 296 297 293 283 262 242 233
251 232 237 235 253 251 253 262 273 267 256 266 281 279 280 249 63 336 233 242 258 245 252 55 4 321 314 325 328 319 290 309 315 313 320 300 309 322 324 330 320 319 317 320 315 312 302 296 302 312 309 308 303 302 308 313 313 317 326 327 328 328 323 321 321 318 315 315 315 313 311 312 315 315 315 315 309 307 306 306 302 291 261 235 226
248 242 233 237 242 243 250 251 260 257 270 287 292 279 254 274 185 212 299 282 255 258 248 108 266 273 221 302 295 354 330 348 325 307 301 296 316 321 325 315 312 313 307 307 309 314 309 303 304 312 310 308 310 308 305 312 313 325 328 328 330 328 328 327 322 320 321 320 320 317 318 317 321 323 322 319 318 319 317 318 313 297 267 228 210
251 241 242 239 231 235 243 241 253 238 227 248 274 272 278 268 257 234 179 298 323 299 112 260 170 354 350 302 282 23 320 298 285 287 300 296 292 309 305 308 315 321 331 329 320 312 311 311 311 307 308 310 315 313 309 310 322 327 329 329 331 334 332 328 325 324 322 322 325 327 326 327 327 329 328 324 324 328 326 327 322 302 253 212 195
249 246 235 243 236 237 234 239 243 243 214 219 245 249 238 227 225 237 198 221 282 261 271 216 223 214 249 351 345 5 230 279 319 284 332 335 303 324 315 331 328 324 323 309 307 306 310 322 318 314 311 319 320 318 317 319 321 317 320 327 334 336 333 331 327 326 325 331 334 332 332 333 334 334 333 331 334 337 337 329 330 311 246 209 204
251 251 239 238 241 235 234 238 242 237 218 224 234 252 253 244 225 208 238 220 229 257 285 247 202 214 174 163 192 270 308 303 12 313 297 257 247 307 325 329 324 319 315 314 323 323 328 326 324 316 317 323 323 324 324 323 321 322 331 332 339 338 336 333 329 328 332 336 339 341 339 339 339 339 339 342 341 342 346 336 333 318 257 229 206
257 244 242 236 233 231 225 228 235 232 225 215 219 223 227 218 212 193 230 230 169 253 253 263 337 229 182 203 234 243 157 307 296 310 324 332 163 345 326 326 321 313 316 317 314 322 325 328 328 319 324 327 331 329 329 327 326 324 323 339 343 340 338 336 333 335 336 342 345 344 346 350 347 347 345 348 339 342 346 354 332 333 287 230 218
262 265 246 241 233 239 227 228 228 230 215 205 211 223 224 257 218 216 241 214 204 229 260 237 215 270 319 303 302 277 179 219 202 248 265 298 314 286 222 323 322 313 297 304 316 320 319 328 325 325 328 332 335 335 337 330 326 322 327 347 346 343 341 338 336 338 339 347 348 350 354 357 359 353 352 349 343 342 346 360 358 322 305 227 207
258 267 271 260 253 241 228 221 220 229 210 210 224 213 208 223 234 222 226 250 217 213 223 241 187 232 272 289 308 287 299 228 222 161 239 288 296 328 323 305 293 301 325 319 318 317 323 320 319 331 335 340 339 341 341 334 330 318 346 351 349 347 344 342 342 341 345 353 355 0 8 10 7 359 350 353 351 351 355 12 28 68 197 235 199
276 259 264 257 252 242 221 216 217 220 208 209 213 215 230 229 235 231 239 261 242 197 205 226 203 230 208 209 234 296 332 353 117 171 254 201 267 309 318 327 334 323 307 315 319 318 323 335 333 334 344 343 344 345 342 338 330 332 352 353 352 351 349 348 348 349 350 357 1 2 9 13 11 18 7 11 359 351 2 12 33 39 36 158 150
284 277 258 257 247 235 226 227 222 217 212 202 209 211 222 220 216 186 253 250 260 211 231 233 222 231 218 194 218 219 236 227 246 253 218 264 286 277 293 294 293 306 312 310 303 301 314 331 342 344 350 348 346 349 343 336 335 354 358 356 356 354 354 353 354 356 355 356 6 11 7 9 8 14 13 19 357 359 2 21 32 35 45 67 122
274 273 272 255 245 241 234 233 229 217 221 209 211 214 224 217 182 172 220 236 245 232 215 242 231 240 230 198 220 218 205 211 237 220 203 240 229 283 299 297 274 243 278 310 299 272 322 353 359 353 355 355 353 351 342 333 351 359 4 358 359 359 359 358 359 2 2 357 12 17 20 18 12 12 10 17 18 7 10 20 31 43 55 83 107
277 274 272 261 244 245 238 230 230 223 220 207 221 217 223 218 199 205 270 265 237 222 227 233 222 220 236 208 207 202 221 215 208 229 233 229 223 293 265 256 296 306 297 343 310 335 297 4 10 8 2 360 352 354 342 336 358 3 6 355 2 360 2 4 6 7 7 3 11 19 21 25 25 25 20 19 20 13 21 35 39 45 60 95 110
272 268 263 270 247 238 241 238 234 231 218 218 218 217 216 219 218 200 210 245 232 221 233 238 223 233 229 223 216 218 237 198 210 199 212 188 235 233 287 296 275 294 282 310 292 346 324 359 20 12 7 3 352 356 343 353 4 6 5 1 357 359 4 10 11 11 10 9 10 16 20 23 25 20 22 21 20 16 22 37 50 64 71 85 102
255 260 269 256 253 249 240 241 240 231 225 221 222 219 219 224 227 229 237 232 221 225 238 230 230 227 216 219 233 231 253 234 193 225 196 211 210 213 182 318 320 273 308 276 304 255 315 295 17 20 7 2 0 356 354 1 11 7 6 3 358 359 5 14 16 15 14 12 13 20 22 24 27 22 17 21 25 16 23 33 47 69 83 92 106
262 261 260 247 252 252 250 244 238 231 222 219 220 211 213 226 239 224 243 220 216 223 239 225 234 227 225 205 204 252 261 240 210 213 204 205 197 178 187 172 292 327 320 316 318 316 338 9 329 27 7 3 2 1 351 7 14 8 7 2 1 358 7 17 17 18 17 17 15 19 24 25 28 28 23 20 22 24 29 38 46 59 84 97 117
260 252 259 253 250 248 253 251 239 230 227 224 221 216 208 213 219 221 237 239 220 233 235 225 238 231 227 205 205 215 257 240 246 227 207 186 187 187 180 198 178 281 319 315 311 312 20 25 2 352 6 3 5 2 5 16 16 14 8 6 3 359 10 19 18 19 19 19 19 23 26 28 29 29 28 26 25 23 29 41 59 65 81 93 93
248 256 249 257 255 250 248 252 249 238 233 232 220 222 213 217 219 223 230 222 230 249 235 223 239 224 228 212 198 224 267 295 257 243 211 162 148 179 191 208 163 213 239 291 303 259 339 21 19 351 347 5 8 12 7 13 21 15 12 4 6 4 12 22 21 19 19 19 19 20 25 30 32 32 31 32 34 35 36 38 50 72 83 87 83
255 256 257 260 259 258 246 259 254 247 236 236 229 225 212 226 230 234 233 221 229 248 247 213 233 208 220 231 191 229 240 234 220 220 350 69 91 125 208 185 180 191 198 213 302 300 26 17 343 357 352 355 14 12 15 20 18 16 13 7 5 16 13 20 25 25 23 23 21 21 25 31 33 32 32 32 34 38 41 43 42 55 77 78 72
254 257 261 266 276 272 254 241 251 255 231 238 224 225 218 224 229 233 235 217 229 233 245 227 218 206 211 223 210 210 198 185 188 102 45 24 29 135 142 187 206 187 186 187 241 286 23 25 349 337 6 355 24 18 19 21 14 20 12 10 9 13 12 13 19 24 24 25 27 26 27 31 34 34 33 32 35 42 45 47 47 45 50 68 71
264 264 261 262 256 255 260 265 252 255 242 242 228 222 220 227 229 233 235 224 229 233 222 243 215 205 208 209 208 216 169 171 171 72 38 26 315 333 115 111 198 207 179 199 240 293 43 13 3 6 7 9 34 17 25 23 17 16 10 18 13 14 15 15 19 21 21 23 26 28 31 34 32 35 37 36 36 38 42 45 45 46 48 55 64
257 267 255 249 260 263 265 269 261 253 253 247 238 218 225 225 234 230 230 225 227 228 211 227 213 208 194 185 197 201 163 162 99 85 49 305 321 309 44 19 269 253 195 205 239 233 23 8 12 9 23 20 40 12 25 27 24 8 16 20 19 19 17 16 22 22 20 23 27 28 32 38 33 32 37 37 37 39 41 49 49 46 45 52 48
276 258 268 269 263 262 260 257 252 253 248 250 246 229 232 219 232 235 229 226 225 219 216 218 210 196 179 178 192 179 131 135 113 77 101 271 280 357 358 323 281 282 252 223 207 143 81 46 7 19 17 27 36 7 10 30 29 17 22 23 22 20 18 20 26 28 17 22 26 29 32 37 37 35 38 39 38 37 39 43 49 51 51 48 47
280 278 264 275 272 265 262 264 253 256 256 251 252 240 231 221 232 236 224 222 225 219 212 179 227 188 194 160 194 165 160 152 129 151 189 211 339 360 346 316 289 318 305 217 225 105 151 67 34 29 13 38 33 15 3 19 34 31 26 27 26 27 26 23 28 29 19 17 24 29 33 36 37 37 37 39 38 38 39 43 46 48 50 49 49
273 280 284 256 263 260 258 261 267 262 254 247 251 252 240 225 230 237 231 224 215 214 189 186 200 186 152 176 183 163 163 151 157 170 190 103 25 356 333 321 339 349 41 55 72 103 109 92 64 14 16 44 34 32 15 16 29 38 30 33 31 25 26 28 29 23 21 21 20 29 33 35 37 38 38 40 39 38 40 42 46 47 44 48 50
293 286 280 284 260 268 263 264 267 270 266 254 253 258 258 241 238 243 244 234 211 204 178 191 166 156 183 168 195 167 163 165 173 158 150 97 64 9 344 7 6 32 58 55 69 78 90 82 78 61 41 29 47 46 16 26 44 42 33 29 43 31 27 29 31 23 22 25 33 27 29 31 34 40 38 38 38 37 38 36 36 38 38 39 48
295 301 299 286 282 269 276 278 278 278 281 277 267 263 262 253 245 247 233 213 200 207 191 168 154 159 180 180 178 176 169 163 158 160 154 145 102 53 30 38 25 53 59 55 65 76 82 91 71 55 58 45 36 48 23 31 59 52 39 31 46 29 34 31 32 29 26 26 36 40 39 36 38 39 39 39 38 37 35 37 36 37 40 39 39
314 306 305 306 307 305 294 296 294 294 288 286 278 269 266 263 251 238 224 212 204 187 169 182 168 171 190 187 182 183 162 155 156 151 155 143 149 100 83 95 71 70 70 70 74 81 84 81 68 57 56 50 32 13 7 31 61 51 33 36 52 35 35 35 32 30 24 34 37 35 28 31 28 33 35 37 36 36 37 37 37 36 36 37 40
349 342 336 341 339 335 332 323 311 305 297 286 284 284 285 273 236 228 216 214 193 171 182 169 103 180 194 196 194 182 163 165 157 161 176 157 147 113 100 109 92 89 85 78 83 89 93 93 78 62 61 59 46 43 45 45 52 50 5 9 59 46 44 51 32 28 26 33 40 43 27 22 30 29 31 36 33 32 35 38 37 38 39 37 39
2 357 355 354 358 349 336 335 331 328 316 311 302 303 292 265 241 226 218 217 186 177 165 159 180 150 176 175 233 199 177 165 161 169 169 140 115 112 142 122 105 96 92 87 87 106 114 108 85 72 72 57 52 47 62 47 39 35 50 35 52 26 48 67 52 28 24 28 36 47 33 25 29 36 34 38 29 31 28 30 37 42 44 45 44
5 358 358 5 2 353 351 343 338 335 340 337 335 326 310 276 241 215 210 204 193 185 168 163 170 145 145 155 227 224 189 166 163 175 158 137 121 122 142 123 113 120 132 107 98 106 136 114 102 94 94 88 69 69 70 55 47 48 51 50 50 52 57 57 56 40 25 26 35 51 44 29 31 42 40 38 34 35 31 34 36 38 42 46 48
359 3 16 6 3 3 357 357 360 354 350 359 347 336 318 290 244 209 198 183 197 186 157 152 143 146 151 196 229 229 140 153 158 165 154 149 131 129 119 111 68 64 57 100 137 135 146 132 119 113 115 112 111 94 87 82 83 73 69 69 52 66 70 70 56 54 30 28 39 54 54 34 35 42 44 36 37 36 36 35 34 39 43 44 47
8 22 9 10 10 5 8 6 2 357 359 359 351 347 331 296 241 202 187 187 180 150 142 154 166 147 168 178 191 196 176 166 161 151 157 158 133 136 149 139 124 89 68 39 36 123 160 141 133 133 129 134 125 113 114 115 103 94 90 80 71 72 72 72 56 53 28 26 47 53 59 39 36 43 51 37 40 39 39 36 32 35 42 44 45
20 13 12 13 10 10 5 3 357 359 4 0 353 352 344 311 244 210 167 173 155 142 148 162 153 162 180 174 175 169 187 142 148 156 156 144 112 86 68 50 74 70 76 97 82 86 111 156 153 143 138 128 125 113 96 83 103 101 102 95 91 83 76 72 59 53 24 2 47 50 65 41 31 43 48 42 35 39 40 35 36 35 37 40 44
19 12 5 5 6 5 1 360 357 359 0 358 359 354 350 330 276 211 131 116 121 124 158 156 142 162 181 185 174 167 161 149 163 160 144 133 110 97 89 85 77 72 55 47 64 81 105 116 174 145 139 126 114 111 103 87 94 93 89 100 93 89 85 79 68 49 43 23 31 26 71 47 23 48 50 39 38 42 35 37 35 36 36 38 43
13 9 13 11 5 359 352 353 358 359 350 2 3 359 354 346 313 192 124 121 107 97 88 105 130 138 138 170 161 155 150 140 158 151 141 131 115 112 109 104 89 73 61 45 28 21 62 106 138 138 129 110 107 107 106 118 116 105 103 96 90 89 86 76 72 60 57 39 38 55 72 64 34 54 50 38 42 44 35 34 36 38 39 38 39
8 9 3 356 340 349 353 356 355 355 351 3 5 1 359 355 335 333 89 93 98 112 104 86 84 160 127 167 165 132 117 125 150 148 145 132 116 122 122 117 107 95 85 71 66 53 53 64 72 92 103 106 104 99 94 85 88 107 116 104 99 101 95 86 78 72 58 45 42 48 71 71 50 55 58 46 42 44 37 34 31 34 38 40 41
12 359 352 355 357 358 359 358 356 358 355 1 6 5 3 3 352 340 47 97 114 107 102 90 99 128 92 192 150 116 131 151 151 137 141 129 119 126 129 126 117 106 97 97 101 80 91 90 94 99 108 107 104 101 102 98 69 32 34 111 128 111 96 93 91 78 72 48 29 349 72 76 83 69 71 59 55 39 36 32 28 28 32 40 44
14 347 6 0 354 357 358 360 4 7 359 3 6 6 5 5 6 355 52 133 112 98 113 120 100 119 77 162 125 134 176 167 139 135 148 134 126 142 140 129 119 118 127 123 119 113 112 102 94 90 91 106 107 111 108 90 71 68 40 62 83 101 105 105 100 98 84 47 13 347 65 41 48 13 37 60 56 42 35 33 33 31 30 31 35